Year,Month,Day,Hour,Minute,Value (Times are PST for temperature in C)
2021,12,27,00,00,-7.90
2021,12,27,00,01,-7.90
2021,12,27,00,02,-7.90
2021,12,27,00,03,-7.90
2021,12,27,00,04,-7.90
2021,12,27,00,05,-7.90
2021,12,27,00,06,-7.90
2021,12,27,00,07,-7.90
2021,12,27,00,08,-7.90
2021,12,27,00,09,-7.90
2021,12,27,00,10,-7.90
2021,12,27,00,11,-7.90
2021,12,27,00,12,-7.90
2021,12,27,00,13,-7.90
2021,12,27,00,14,-7.90
2021,12,27,00,15,-8.00
2021,12,27,00,16,-8.10
2021,12,27,00,17,-8.10
2021,12,27,00,18,-8.10
2021,12,27,00,19,-8.10
2021,12,27,00,20,-8.10
2021,12,27,00,21,-8.10
2021,12,27,00,22,-8.10
2021,12,27,00,23,-8.10
2021,12,27,00,24,-8.10
2021,12,27,00,25,-8.10
2021,12,27,00,26,-8.10
2021,12,27,00,27,-8.10
2021,12,27,00,28,-8.10
2021,12,27,00,29,-8.10
2021,12,27,00,30,-8.10
2021,12,27,00,31,-8.10
2021,12,27,00,32,-8.10
2021,12,27,00,33,-8.10
2021,12,27,00,34,-8.10
2021,12,27,00,35,-8.20
2021,12,27,00,36,-8.20
2021,12,27,00,37,-8.20
2021,12,27,00,38,-8.20
2021,12,27,00,39,-8.20
2021,12,27,00,40,-8.20
2021,12,27,00,41,-8.20
2021,12,27,00,42,-8.20
2021,12,27,00,43,-8.20
2021,12,27,00,44,-8.20
2021,12,27,00,45,-8.20
2021,12,27,00,46,-8.20
2021,12,27,00,47,-8.20
2021,12,27,00,48,-8.20
2021,12,27,00,49,-8.20
2021,12,27,00,50,-8.20
2021,12,27,00,51,-8.20
2021,12,27,00,52,-8.20
2021,12,27,00,53,-8.20
2021,12,27,00,54,-8.20
2021,12,27,00,55,-8.20
2021,12,27,00,56,-8.20
2021,12,27,00,57,-8.20
2021,12,27,00,58,-8.20
2021,12,27,00,59,-8.20
2021,12,27,01,00,-8.20
2021,12,27,01,01,-8.20
2021,12,27,01,02,-8.20
2021,12,27,01,03,-8.20
2021,12,27,01,04,-8.20
2021,12,27,01,05,-8.20
2021,12,27,01,06,-8.20
2021,12,27,01,07,-8.20
2021,12,27,01,08,-8.20
2021,12,27,01,09,-8.20
2021,12,27,01,10,-8.20
2021,12,27,01,11,-8.20
2021,12,27,01,12,-8.20
2021,12,27,01,13,-8.20
2021,12,27,01,14,-8.20
2021,12,27,01,15,-8.20
2021,12,27,01,16,-8.20
2021,12,27,01,17,-8.20
2021,12,27,01,18,-8.20
2021,12,27,01,19,-8.20
2021,12,27,01,20,-8.20
2021,12,27,01,21,-8.20
2021,12,27,01,22,-8.20
2021,12,27,01,23,-8.20
2021,12,27,01,24,-8.20
2021,12,27,01,25,-8.20
2021,12,27,01,26,-8.20
2021,12,27,01,27,-8.20
2021,12,27,01,28,-8.20
2021,12,27,01,29,-8.20
2021,12,27,01,30,-8.20
2021,12,27,01,31,-8.20
2021,12,27,01,32,-8.20
2021,12,27,01,33,-8.20
2021,12,27,01,34,-8.20
2021,12,27,01,35,-8.20
2021,12,27,01,36,-8.20
2021,12,27,01,37,-8.20
2021,12,27,01,38,-8.20
2021,12,27,01,39,-8.20
2021,12,27,01,40,-8.20
2021,12,27,01,41,-8.20
2021,12,27,01,42,-8.20
2021,12,27,01,43,-8.20
2021,12,27,01,44,-8.20
2021,12,27,01,45,-8.20
2021,12,27,01,46,-8.20
2021,12,27,01,47,-8.20
2021,12,27,01,48,-8.20
2021,12,27,01,49,-8.20
2021,12,27,01,50,-8.20
2021,12,27,01,51,-8.20
2021,12,27,01,52,-8.20
2021,12,27,01,53,-8.20
2021,12,27,01,54,-8.20
2021,12,27,01,55,-8.20
2021,12,27,01,56,-8.20
2021,12,27,01,57,-8.20
2021,12,27,01,58,-8.20
2021,12,27,01,59,-8.20
2021,12,27,02,00,-8.20
2021,12,27,02,01,-8.20
2021,12,27,02,02,-8.20
2021,12,27,02,03,-8.20
2021,12,27,02,04,-8.20
2021,12,27,02,05,-8.20
2021,12,27,02,06,-8.20
2021,12,27,02,07,-8.20
2021,12,27,02,08,-8.20
2021,12,27,02,09,-8.20
2021,12,27,02,10,-8.20
2021,12,27,02,11,-8.20
2021,12,27,02,12,-8.20
2021,12,27,02,13,-8.20
2021,12,27,02,14,-8.20
2021,12,27,02,15,-8.20
2021,12,27,02,16,-8.20
2021,12,27,02,17,-8.20
2021,12,27,02,18,-8.20
2021,12,27,02,19,-8.20
2021,12,27,02,20,-8.20
2021,12,27,02,21,-8.20
2021,12,27,02,22,-8.20
2021,12,27,02,23,-8.20
2021,12,27,02,24,-8.20
2021,12,27,02,25,-8.20
2021,12,27,02,26,-8.20
2021,12,27,02,27,-8.20
2021,12,27,02,28,-8.20
2021,12,27,02,29,-8.30
2021,12,27,02,30,-8.30
2021,12,27,02,31,-8.30
2021,12,27,02,32,-8.30
2021,12,27,02,33,-8.30
2021,12,27,02,34,-8.30
2021,12,27,02,35,-8.40
2021,12,27,02,36,-8.40
2021,12,27,02,37,-8.40
2021,12,27,02,38,-8.40
2021,12,27,02,39,-8.40
2021,12,27,02,40,-8.40
2021,12,27,02,41,-8.40
2021,12,27,02,42,-8.40
2021,12,27,02,43,-8.40
2021,12,27,02,44,-8.40
2021,12,27,02,45,-8.40
2021,12,27,02,46,-8.40
2021,12,27,02,47,-8.40
2021,12,27,02,48,-8.40
2021,12,27,02,49,-8.40
2021,12,27,02,50,-8.40
2021,12,27,02,51,-8.40
2021,12,27,02,52,-8.40
2021,12,27,02,53,-8.50
2021,12,27,02,54,-8.50
2021,12,27,02,55,-8.50
2021,12,27,02,56,-8.50
2021,12,27,02,57,-8.50
2021,12,27,02,58,-8.50
2021,12,27,02,59,-8.60
2021,12,27,03,00,-8.60
2021,12,27,03,01,-8.60
2021,12,27,03,02,-8.70
2021,12,27,03,03,-8.70
2021,12,27,03,04,-8.70
2021,12,27,03,05,-8.70
2021,12,27,03,06,-8.70
2021,12,27,03,07,-8.70
2021,12,27,03,08,-8.70
2021,12,27,03,09,-8.70
2021,12,27,03,10,-8.70
2021,12,27,03,11,-8.70
2021,12,27,03,12,-8.70
2021,12,27,03,13,-8.70
2021,12,27,03,14,-8.70
2021,12,27,03,15,-8.70
2021,12,27,03,16,-8.70
2021,12,27,03,17,-8.70
2021,12,27,03,18,-8.70
2021,12,27,03,19,-8.70
2021,12,27,03,20,-8.70
2021,12,27,03,21,-8.70
2021,12,27,03,22,-8.70
2021,12,27,03,23,-8.70
2021,12,27,03,24,-8.70
2021,12,27,03,25,-8.70
2021,12,27,03,26,-8.70
2021,12,27,03,27,-8.70
2021,12,27,03,28,-8.70
2021,12,27,03,29,-8.70
2021,12,27,03,30,-8.70
2021,12,27,03,31,-8.70
2021,12,27,03,32,-8.70
2021,12,27,03,33,-8.70
2021,12,27,03,34,-8.70
2021,12,27,03,35,-8.70
2021,12,27,03,36,-8.60
2021,12,27,03,37,-8.60
2021,12,27,03,38,-8.60
2021,12,27,03,39,-8.60
2021,12,27,03,40,-8.60
2021,12,27,03,41,-8.60
2021,12,27,03,42,-8.50
2021,12,27,03,43,-8.50
2021,12,27,03,44,-8.50
2021,12,27,03,45,-8.50
2021,12,27,03,46,-8.50
2021,12,27,03,47,-8.50
2021,12,27,03,48,-8.40
2021,12,27,03,49,-8.40
2021,12,27,03,50,-8.40
2021,12,27,03,51,-8.40
2021,12,27,03,52,-8.40
2021,12,27,03,53,-8.40
2021,12,27,03,54,-8.40
2021,12,27,03,55,-8.40
2021,12,27,03,56,-8.40
2021,12,27,03,57,-8.40
2021,12,27,03,58,-8.40
2021,12,27,03,59,-8.40
2021,12,27,04,00,-8.40
2021,12,27,04,01,-8.40
2021,12,27,04,02,-8.40
2021,12,27,04,03,-8.40
2021,12,27,04,04,-8.40
2021,12,27,04,05,-8.40
2021,12,27,04,06,-8.40
2021,12,27,04,07,-8.40
2021,12,27,04,08,-8.40
2021,12,27,04,09,-8.40
2021,12,27,04,10,-8.40
2021,12,27,04,11,-8.40
2021,12,27,04,12,-8.30
2021,12,27,04,13,-8.30
2021,12,27,04,14,-8.30
2021,12,27,04,15,-8.30
2021,12,27,04,16,-8.30
2021,12,27,04,17,-8.30
2021,12,27,04,18,-8.30
2021,12,27,04,19,-8.30
2021,12,27,04,20,-8.30
2021,12,27,04,21,-8.30
2021,12,27,04,22,-8.30
2021,12,27,04,23,-8.30
2021,12,27,04,24,-8.30
2021,12,27,04,25,-8.30
2021,12,27,04,26,-8.30
2021,12,27,04,27,-8.30
2021,12,27,04,28,-8.30
2021,12,27,04,29,-8.30
2021,12,27,04,30,-8.30
2021,12,27,04,31,-8.30
2021,12,27,04,32,-8.30
2021,12,27,04,33,-8.30
2021,12,27,04,34,-8.30
2021,12,27,04,35,-8.30
2021,12,27,04,36,-8.30
2021,12,27,04,37,-8.30
2021,12,27,04,38,-8.30
2021,12,27,04,39,-8.20
2021,12,27,04,40,-8.20
2021,12,27,04,41,-8.20
2021,12,27,04,42,-8.20
2021,12,27,04,43,-8.20
2021,12,27,04,44,-8.20
2021,12,27,04,45,-8.20
2021,12,27,04,46,-8.20
2021,12,27,04,47,-8.20
2021,12,27,04,48,-8.20
2021,12,27,04,49,-8.20
2021,12,27,04,50,-8.20
2021,12,27,04,51,-8.20
2021,12,27,04,52,-8.20
2021,12,27,04,53,-8.20
2021,12,27,04,54,-8.20
2021,12,27,04,55,-8.20
2021,12,27,04,56,-8.20
2021,12,27,04,57,-8.20
2021,12,27,04,58,-8.20
2021,12,27,04,59,-8.20
2021,12,27,05,00,-8.20
2021,12,27,05,01,-8.20
2021,12,27,05,02,-8.20
2021,12,27,05,03,-8.20
2021,12,27,05,04,-8.20
2021,12,27,05,05,-8.20
2021,12,27,05,06,-8.20
2021,12,27,05,07,-8.20
2021,12,27,05,08,-8.20
2021,12,27,05,09,-8.20
2021,12,27,05,10,-8.20
2021,12,27,05,11,-8.20
2021,12,27,05,12,-8.20
2021,12,27,05,13,-8.20
2021,12,27,05,14,-8.20
2021,12,27,05,15,-8.20
2021,12,27,05,16,-8.20
2021,12,27,05,17,-8.20
2021,12,27,05,18,-8.20
2021,12,27,05,19,-8.20
2021,12,27,05,20,-8.20
2021,12,27,05,21,-8.20
2021,12,27,05,22,-8.20
2021,12,27,05,23,-8.10
2021,12,27,05,24,-8.10
2021,12,27,05,25,-8.10
2021,12,27,05,26,-8.10
2021,12,27,05,27,-8.10
2021,12,27,05,28,-8.10
2021,12,27,05,29,-8.10
2021,12,27,05,30,-8.10
2021,12,27,05,31,-8.10
2021,12,27,05,32,-8.10
2021,12,27,05,33,-8.10
2021,12,27,05,34,-8.10
2021,12,27,05,35,-8.10
2021,12,27,05,36,-8.10
2021,12,27,05,37,-8.10
2021,12,27,05,38,-8.10
2021,12,27,05,39,-8.10
2021,12,27,05,40,-8.20
2021,12,27,05,41,-8.20
2021,12,27,05,42,-8.20
2021,12,27,05,43,-8.20
2021,12,27,05,44,-8.20
2021,12,27,05,45,-8.20
2021,12,27,05,46,-8.20
2021,12,27,05,47,-8.20
2021,12,27,05,48,-8.20
2021,12,27,05,49,-8.20
2021,12,27,05,50,-8.20
2021,12,27,05,51,-8.10
2021,12,27,05,52,-8.10
2021,12,27,05,53,-8.10
2021,12,27,05,54,-8.10
2021,12,27,05,55,-8.10
2021,12,27,05,56,-8.10
2021,12,27,05,57,-8.10
2021,12,27,05,58,-8.10
2021,12,27,05,59,-8.10
2021,12,27,06,00,-8.10
2021,12,27,06,01,-8.10
2021,12,27,06,02,-8.10
2021,12,27,06,03,-8.10
2021,12,27,06,04,-8.10
2021,12,27,06,05,-8.10
2021,12,27,06,06,-8.00
2021,12,27,06,07,-7.90
2021,12,27,06,08,-7.90
2021,12,27,06,09,-7.90
2021,12,27,06,10,-7.90
2021,12,27,06,11,-7.90
2021,12,27,06,12,-7.90
2021,12,27,06,13,-7.90
2021,12,27,06,14,-7.90
2021,12,27,06,15,-7.90
2021,12,27,06,16,-7.90
2021,12,27,06,17,-7.90
2021,12,27,06,18,-7.90
2021,12,27,06,19,-7.90
2021,12,27,06,20,-7.90
2021,12,27,06,21,-7.90
2021,12,27,06,22,-7.90
2021,12,27,06,23,-7.90
2021,12,27,06,24,-7.90
2021,12,27,06,25,-7.90
2021,12,27,06,26,-7.90
2021,12,27,06,27,-7.90
2021,12,27,06,28,-7.90
2021,12,27,06,29,-7.90
2021,12,27,06,30,-7.90
2021,12,27,06,31,-7.90
2021,12,27,06,32,-7.90
2021,12,27,06,33,-7.90
2021,12,27,06,34,-7.90
2021,12,27,06,35,-7.90
2021,12,27,06,36,-7.90
2021,12,27,06,37,-7.90
2021,12,27,06,38,-7.90
2021,12,27,06,39,-7.90
2021,12,27,06,40,-7.90
2021,12,27,06,41,-7.90
2021,12,27,06,42,-7.90
2021,12,27,06,43,-7.90
2021,12,27,06,44,-7.90
2021,12,27,06,45,-7.90
2021,12,27,06,46,-7.90
2021,12,27,06,47,-7.90
2021,12,27,06,48,-7.90
2021,12,27,06,49,-7.90
2021,12,27,06,50,-7.90
2021,12,27,06,51,-7.90
2021,12,27,06,52,-7.90
2021,12,27,06,53,-7.90
2021,12,27,06,54,-7.90
2021,12,27,06,55,-7.90
2021,12,27,06,56,-7.90
2021,12,27,06,57,-7.90
2021,12,27,06,58,-7.90
2021,12,27,06,59,-7.90
2021,12,27,07,00,-7.90
2021,12,27,07,01,-7.90
2021,12,27,07,02,-7.90
2021,12,27,07,03,-7.90
2021,12,27,07,04,-7.90
2021,12,27,07,05,-7.90
2021,12,27,07,06,-7.90
2021,12,27,07,07,-7.90
2021,12,27,07,08,-7.90
2021,12,27,07,09,-7.90
2021,12,27,07,10,-7.90
2021,12,27,07,11,-7.90
2021,12,27,07,12,-7.90
2021,12,27,07,13,-7.90
2021,12,27,07,14,-7.90
2021,12,27,07,15,-7.90
2021,12,27,07,16,-7.90
2021,12,27,07,17,-7.90
2021,12,27,07,18,-7.90
2021,12,27,07,19,-7.90
2021,12,27,07,20,-7.90
2021,12,27,07,21,-7.90
2021,12,27,07,22,-7.90
2021,12,27,07,23,-7.90
2021,12,27,07,24,-7.90
2021,12,27,07,25,-8.10
2021,12,27,07,26,-8.10
2021,12,27,07,27,-8.10
2021,12,27,07,28,-8.10
2021,12,27,07,29,-8.10
2021,12,27,07,30,-8.10
2021,12,27,07,31,-8.10
2021,12,27,07,32,-8.10
2021,12,27,07,33,-8.10
2021,12,27,07,34,-8.10
2021,12,27,07,35,-8.10
2021,12,27,07,36,-8.10
2021,12,27,07,37,-8.10
2021,12,27,07,38,-8.10
2021,12,27,07,39,-8.10
2021,12,27,07,40,-8.10
2021,12,27,07,41,-8.10
2021,12,27,07,42,-8.10
2021,12,27,07,43,-8.20
2021,12,27,07,44,-8.20
2021,12,27,07,45,-8.20
2021,12,27,07,46,-8.20
2021,12,27,07,47,-8.20
2021,12,27,07,48,-8.20
2021,12,27,07,49,-8.20
2021,12,27,07,50,-8.20
2021,12,27,07,51,-8.20
2021,12,27,07,52,-8.20
2021,12,27,07,53,-8.20
2021,12,27,07,54,-8.20
2021,12,27,07,55,-8.20
2021,12,27,07,56,-8.20
2021,12,27,07,57,-8.20
2021,12,27,07,58,-8.20
2021,12,27,07,59,-8.20
2021,12,27,08,00,-8.20
2021,12,27,08,01,-8.20
2021,12,27,08,02,-8.20
2021,12,27,08,03,-8.20
2021,12,27,08,04,-8.20
2021,12,27,08,05,-8.20
2021,12,27,08,06,-8.20
2021,12,27,08,07,-8.20
2021,12,27,08,08,-8.20
2021,12,27,08,09,-8.20
2021,12,27,08,10,-8.20
2021,12,27,08,11,-8.20
2021,12,27,08,12,-8.20
2021,12,27,08,13,-8.20
2021,12,27,08,14,-8.20
2021,12,27,08,15,-8.20
2021,12,27,08,16,-8.20
2021,12,27,08,17,-8.20
2021,12,27,08,18,-8.10
2021,12,27,08,19,-8.10
2021,12,27,08,20,-8.10
2021,12,27,08,21,-8.10
2021,12,27,08,22,-8.10
2021,12,27,08,23,-8.10
2021,12,27,08,24,-8.00
2021,12,27,08,25,-7.90
2021,12,27,08,26,-7.90
2021,12,27,08,27,-7.90
2021,12,27,08,28,-7.90
2021,12,27,08,29,-7.90
2021,12,27,08,30,-7.90
2021,12,27,08,31,-7.90
2021,12,27,08,32,-7.90
2021,12,27,08,33,-7.90
2021,12,27,08,34,-7.90
2021,12,27,08,35,-7.90
2021,12,27,08,36,-7.90
2021,12,27,08,37,-7.90
2021,12,27,08,38,-7.80
2021,12,27,08,39,-7.80
2021,12,27,08,40,-7.80
2021,12,27,08,41,-7.80
2021,12,27,08,42,-7.80
2021,12,27,08,43,-7.80
2021,12,27,08,44,-7.80
2021,12,27,08,45,-7.80
2021,12,27,08,46,-7.80
2021,12,27,08,47,-7.70
2021,12,27,08,48,-7.70
2021,12,27,08,49,-7.70
2021,12,27,08,50,-7.70
2021,12,27,08,51,-7.80
2021,12,27,08,52,-7.80
2021,12,27,08,53,-7.70
2021,12,27,08,54,-7.70
2021,12,27,08,55,-7.70
2021,12,27,08,56,-7.70
2021,12,27,08,57,-7.70
2021,12,27,08,58,-7.70
2021,12,27,08,59,-7.70
2021,12,27,09,00,-7.70
2021,12,27,09,01,-7.70
2021,12,27,09,02,-7.70
2021,12,27,09,03,-7.70
2021,12,27,09,04,-7.70
2021,12,27,09,05,-7.70
2021,12,27,09,06,-7.70
2021,12,27,09,07,-7.70
2021,12,27,09,08,-7.70
2021,12,27,09,09,-7.70
2021,12,27,09,10,-7.70
2021,12,27,09,11,-7.70
2021,12,27,09,12,-7.70
2021,12,27,09,13,-7.70
2021,12,27,09,14,-7.70
2021,12,27,09,15,-7.70
2021,12,27,09,16,-7.70
2021,12,27,09,17,-7.70
2021,12,27,09,18,-7.70
2021,12,27,09,19,-7.70
2021,12,27,09,20,-7.70
2021,12,27,09,21,-7.70
2021,12,27,09,22,-7.70
2021,12,27,09,23,-7.70
2021,12,27,09,24,-7.70
2021,12,27,09,25,-7.70
2021,12,27,09,26,-7.70
2021,12,27,09,27,-7.70
2021,12,27,09,28,-7.70
2021,12,27,09,29,-7.70
2021,12,27,09,30,-7.70
2021,12,27,09,31,-7.70
2021,12,27,09,32,-7.70
2021,12,27,09,33,-7.70
2021,12,27,09,34,-7.70
2021,12,27,09,35,-7.70
2021,12,27,09,36,-7.70
2021,12,27,09,37,-7.70
2021,12,27,09,38,-7.70
2021,12,27,09,39,-7.60
2021,12,27,09,40,-7.60
2021,12,27,09,41,-7.60
2021,12,27,09,42,-7.60
2021,12,27,09,43,-7.60
2021,12,27,09,44,-7.60
2021,12,27,09,45,-7.60
2021,12,27,09,46,-7.60
2021,12,27,09,47,-7.60
2021,12,27,09,48,-7.60
2021,12,27,09,49,-7.60
2021,12,27,09,50,-7.60
2021,12,27,09,51,-7.50
2021,12,27,09,52,-7.50
2021,12,27,09,53,-7.40
2021,12,27,09,54,-7.40
2021,12,27,09,55,-7.40
2021,12,27,09,56,-7.40
2021,12,27,09,57,-7.40
2021,12,27,09,58,-7.40
2021,12,27,09,59,-7.30
2021,12,27,10,00,-7.30
2021,12,27,10,01,-7.40
2021,12,27,10,02,-7.40
2021,12,27,10,03,-7.40
2021,12,27,10,04,-7.30
2021,12,27,10,05,-7.30
2021,12,27,10,06,-7.40
2021,12,27,10,07,-7.30
2021,12,27,10,08,-7.30
2021,12,27,10,09,-7.30
2021,12,27,10,10,-7.30
2021,12,27,10,11,-7.30
2021,12,27,10,12,-7.30
2021,12,27,10,13,-7.30
2021,12,27,10,14,-7.30
2021,12,27,10,15,-7.30
2021,12,27,10,16,-7.30
2021,12,27,10,17,-7.30
2021,12,27,10,18,-7.30
2021,12,27,10,19,-7.30
2021,12,27,10,20,-7.30
2021,12,27,10,21,-7.30
2021,12,27,10,22,-7.20
2021,12,27,10,23,-7.20
2021,12,27,10,24,-7.20
2021,12,27,10,25,-7.20
2021,12,27,10,26,-7.30
2021,12,27,10,27,-7.30
2021,12,27,10,28,-7.30
2021,12,27,10,29,-7.30
2021,12,27,10,30,-7.30
2021,12,27,10,31,-7.30
2021,12,27,10,32,-7.30
2021,12,27,10,33,-7.30
2021,12,27,10,34,-7.30
2021,12,27,10,35,-7.30
2021,12,27,10,36,-7.30
2021,12,27,10,37,-7.30
2021,12,27,10,38,-7.30
2021,12,27,10,39,-7.30
2021,12,27,10,40,-7.30
2021,12,27,10,41,-7.40
2021,12,27,10,42,-7.40
2021,12,27,10,43,-7.40
2021,12,27,10,44,-7.40
2021,12,27,10,45,-7.50
2021,12,27,10,46,-7.60
2021,12,27,10,47,-7.50
2021,12,27,10,48,-7.60
2021,12,27,10,49,-7.60
2021,12,27,10,50,-7.60
2021,12,27,10,51,-7.50
2021,12,27,10,52,-7.40
2021,12,27,10,53,-7.40
2021,12,27,10,54,-7.40
2021,12,27,10,55,-7.50
2021,12,27,10,56,-7.60
2021,12,27,10,57,-7.60
2021,12,27,10,58,-7.50
2021,12,27,10,59,-7.40
2021,12,27,11,00,-7.40
2021,12,27,11,01,-7.40
2021,12,27,11,02,-7.30
2021,12,27,11,03,-7.30
2021,12,27,11,04,-7.40
2021,12,27,11,05,-7.40
2021,12,27,11,06,-7.40
2021,12,27,11,07,-7.40
2021,12,27,11,08,-7.40
2021,12,27,11,09,-7.50
2021,12,27,11,10,-7.60
2021,12,27,11,11,-7.50
2021,12,27,11,12,-7.40
2021,12,27,11,13,-7.40
2021,12,27,11,14,-7.60
2021,12,27,11,15,-7.60
2021,12,27,11,16,-7.60
2021,12,27,11,17,-7.60
2021,12,27,11,18,-7.60
2021,12,27,11,19,-7.60
2021,12,27,11,20,-7.60
2021,12,27,11,21,-7.60
2021,12,27,11,22,-7.40
2021,12,27,11,23,-7.40
2021,12,27,11,24,-7.30
2021,12,27,11,25,-7.30
2021,12,27,11,26,-7.30
2021,12,27,11,27,-7.30
2021,12,27,11,28,-7.30
2021,12,27,11,29,-7.30
2021,12,27,11,30,-7.30
2021,12,27,11,31,-7.30
2021,12,27,11,32,-7.20
2021,12,27,11,33,-7.30
2021,12,27,11,34,-7.20
2021,12,27,11,35,-7.20
2021,12,27,11,36,-7.20
2021,12,27,11,37,-7.20
2021,12,27,11,38,-7.20
2021,12,27,11,39,-7.20
2021,12,27,11,40,-7.20
2021,12,27,11,41,-7.20
2021,12,27,11,42,-7.10
2021,12,27,11,43,-7.10
2021,12,27,11,44,-7.10
2021,12,27,11,45,-7.10
2021,12,27,11,46,-7.10
2021,12,27,11,47,-7.10
2021,12,27,11,48,-7.10
2021,12,27,11,49,-7.10
2021,12,27,11,50,-7.10
2021,12,27,11,51,-7.10
2021,12,27,11,52,-7.10
2021,12,27,11,53,-7.20
2021,12,27,11,54,-7.20
2021,12,27,11,55,-7.30
2021,12,27,11,56,-7.30
2021,12,27,11,57,-7.30
2021,12,27,11,58,-7.30
2021,12,27,11,59,-7.20
2021,12,27,12,00,-7.20
2021,12,27,12,01,-7.20
2021,12,27,12,02,-7.20
2021,12,27,12,03,-7.20
2021,12,27,12,04,-7.20
2021,12,27,12,05,-7.20
2021,12,27,12,06,-7.10
2021,12,27,12,07,-7.10
2021,12,27,12,08,-7.10
2021,12,27,12,09,-7.10
2021,12,27,12,10,-7.00
2021,12,27,12,11,-7.00
2021,12,27,12,12,-7.00
2021,12,27,12,13,-7.00
2021,12,27,12,14,-7.00
2021,12,27,12,15,-7.00
2021,12,27,12,16,-7.00
2021,12,27,12,17,-6.90
2021,12,27,12,18,-6.90
2021,12,27,12,19,-7.00
2021,12,27,12,20,-7.00
2021,12,27,12,21,-6.90
2021,12,27,12,22,-7.00
2021,12,27,12,23,-7.00
2021,12,27,12,24,-7.00
2021,12,27,12,25,-7.00
2021,12,27,12,26,-7.00
2021,12,27,12,27,-7.00
2021,12,27,12,28,-7.00
2021,12,27,12,29,-7.00
2021,12,27,12,30,-7.00
2021,12,27,12,31,-7.00
2021,12,27,12,32,-7.00
2021,12,27,12,33,-7.00
2021,12,27,12,34,-7.00
2021,12,27,12,35,-7.00
2021,12,27,12,36,-7.00
2021,12,27,12,37,-6.90
2021,12,27,12,38,-6.90
2021,12,27,12,39,-6.90
2021,12,27,12,40,-6.90
2021,12,27,12,41,-6.80
2021,12,27,12,42,-6.80
2021,12,27,12,43,-6.80
2021,12,27,12,44,-6.80
2021,12,27,12,45,-6.80
2021,12,27,12,46,-6.80
2021,12,27,12,47,-6.80
2021,12,27,12,48,-6.80
2021,12,27,12,49,-6.80
2021,12,27,12,50,-6.80
2021,12,27,12,51,-6.80
2021,12,27,12,52,-6.80
2021,12,27,12,53,-6.80
2021,12,27,12,54,-6.80
2021,12,27,12,55,-6.70
2021,12,27,12,56,-6.70
2021,12,27,12,57,-6.70
2021,12,27,12,58,-6.70
2021,12,27,12,59,-6.70
2021,12,27,13,00,-6.70
2021,12,27,13,01,-6.70
2021,12,27,13,02,-6.70
2021,12,27,13,03,-6.70
2021,12,27,13,04,-6.70
2021,12,27,13,05,-6.60
2021,12,27,13,06,-6.60
2021,12,27,13,07,-6.60
2021,12,27,13,08,-6.60
2021,12,27,13,09,-6.50
2021,12,27,13,10,-6.50
2021,12,27,13,11,-6.50
2021,12,27,13,12,-6.40
2021,12,27,13,13,-6.40
2021,12,27,13,14,-6.40
2021,12,27,13,15,-6.40
2021,12,27,13,16,-6.40
2021,12,27,13,17,-6.40
2021,12,27,13,18,-6.40
2021,12,27,13,19,-6.40
2021,12,27,13,20,-6.50
2021,12,27,13,21,-6.40
2021,12,27,13,22,-6.40
2021,12,27,13,23,-6.40
2021,12,27,13,24,-6.40
2021,12,27,13,25,-6.40
2021,12,27,13,26,-6.40
2021,12,27,13,27,-6.30
2021,12,27,13,28,-6.30
2021,12,27,13,29,-6.20
2021,12,27,13,30,-6.20
2021,12,27,13,31,-6.20
2021,12,27,13,32,-6.20
2021,12,27,13,33,-6.30
2021,12,27,13,34,-6.30
2021,12,27,13,35,-6.30
2021,12,27,13,36,-6.30
2021,12,27,13,37,-6.30
2021,12,27,13,38,-6.30
2021,12,27,13,39,-6.30
2021,12,27,13,40,-6.20
2021,12,27,13,41,-6.20
2021,12,27,13,42,-6.20
2021,12,27,13,43,-6.20
2021,12,27,13,44,-6.20
2021,12,27,13,45,-6.20
2021,12,27,13,46,-6.20
2021,12,27,13,47,-6.30
2021,12,27,13,48,-6.30
2021,12,27,13,49,-6.30
2021,12,27,13,50,-6.30
2021,12,27,13,51,-6.20
2021,12,27,13,52,-6.20
2021,12,27,13,53,-6.20
2021,12,27,13,54,-6.20
2021,12,27,13,55,-6.20
2021,12,27,13,56,-6.20
2021,12,27,13,57,-6.20
2021,12,27,13,58,-6.20
2021,12,27,13,59,-6.20
2021,12,27,14,00,-6.20
2021,12,27,14,01,-6.10
2021,12,27,14,02,-6.10
2021,12,27,14,03,-6.10
2021,12,27,14,04,-6.10
2021,12,27,14,05,-6.10
2021,12,27,14,06,-6.10
2021,12,27,14,07,-6.10
2021,12,27,14,08,-6.10
2021,12,27,14,09,-6.10
2021,12,27,14,10,-6.10
2021,12,27,14,11,-6.10
2021,12,27,14,12,-6.10
2021,12,27,14,13,-6.10
2021,12,27,14,14,-6.10
2021,12,27,14,15,-6.10
2021,12,27,14,16,-6.10
2021,12,27,14,17,-6.10
2021,12,27,14,18,-6.10
2021,12,27,14,19,-6.10
2021,12,27,14,20,-6.10
2021,12,27,14,21,-6.00
2021,12,27,14,22,-6.00
2021,12,27,14,23,-6.10
2021,12,27,14,24,-6.10
2021,12,27,14,25,-5.90
2021,12,27,14,26,-5.90
2021,12,27,14,27,-5.90
2021,12,27,14,28,-5.90
2021,12,27,14,29,-5.90
2021,12,27,14,30,-5.90
2021,12,27,14,31,-5.90
2021,12,27,14,32,-5.90
2021,12,27,14,33,-5.90
2021,12,27,14,34,-5.90
2021,12,27,14,35,-5.90
2021,12,27,14,36,-5.90
2021,12,27,14,37,-5.90
2021,12,27,14,38,-5.90
2021,12,27,14,39,-5.90
2021,12,27,14,40,-5.90
2021,12,27,14,41,-5.80
2021,12,27,14,42,-5.80
2021,12,27,14,43,-5.80
2021,12,27,14,44,-5.70
2021,12,27,14,45,-5.70
2021,12,27,14,46,-5.70
2021,12,27,14,47,-5.70
2021,12,27,14,48,-5.70
2021,12,27,14,49,-5.80
2021,12,27,14,50,-5.80
2021,12,27,14,51,-5.80
2021,12,27,14,52,-5.80
2021,12,27,14,53,-5.80
2021,12,27,14,54,-5.90
2021,12,27,14,55,-5.90
2021,12,27,14,56,-5.90
2021,12,27,14,57,-5.90
2021,12,27,14,58,-5.90
2021,12,27,14,59,-5.90
2021,12,27,15,00,-5.90
2021,12,27,15,01,-5.90
2021,12,27,15,02,-5.90
2021,12,27,15,03,-5.90
2021,12,27,15,04,-5.90
2021,12,27,15,05,-5.90
2021,12,27,15,06,-5.90
2021,12,27,15,07,-5.90
2021,12,27,15,08,-6.00
2021,12,27,15,09,-6.10
2021,12,27,15,10,-6.10
2021,12,27,15,11,-6.10
2021,12,27,15,12,-6.10
2021,12,27,15,13,-6.10
2021,12,27,15,14,-6.10
2021,12,27,15,15,-6.20
2021,12,27,15,16,-6.20
2021,12,27,15,17,-6.20
2021,12,27,15,18,-6.20
2021,12,27,15,19,-6.20
2021,12,27,15,20,-6.20
2021,12,27,15,21,-6.20
2021,12,27,15,22,-6.30
2021,12,27,15,23,-6.30
2021,12,27,15,24,-6.30
2021,12,27,15,25,-6.30
2021,12,27,15,26,-6.30
2021,12,27,15,27,-6.30
2021,12,27,15,28,-6.40
2021,12,27,15,29,-6.40
2021,12,27,15,30,-6.40
2021,12,27,15,31,-6.40
2021,12,27,15,32,-6.40
2021,12,27,15,33,-6.40
2021,12,27,15,34,-6.40
2021,12,27,15,35,-6.40
2021,12,27,15,36,-6.40
2021,12,27,15,37,-6.50
2021,12,27,15,38,-6.50
2021,12,27,15,39,-6.50
2021,12,27,15,40,-6.50
2021,12,27,15,41,-6.50
2021,12,27,15,42,-6.50
2021,12,27,15,43,-6.40
2021,12,27,15,44,-6.40
2021,12,27,15,45,-6.40
2021,12,27,15,46,-6.40
2021,12,27,15,47,-6.50
2021,12,27,15,48,-6.50
2021,12,27,15,49,-6.50
2021,12,27,15,50,-6.50
2021,12,27,15,51,-6.50
2021,12,27,15,52,-6.50
2021,12,27,15,53,-6.50
2021,12,27,15,54,-6.50
2021,12,27,15,55,-6.60
2021,12,27,15,56,-6.60
2021,12,27,15,57,-6.60
2021,12,27,15,58,-6.60
2021,12,27,15,59,-6.70
2021,12,27,16,00,-6.70
2021,12,27,16,01,-6.70
2021,12,27,16,02,-6.70
2021,12,27,16,03,-6.70
2021,12,27,16,04,-6.70
2021,12,27,16,05,-6.70
2021,12,27,16,06,-6.70
2021,12,27,16,07,-6.70
2021,12,27,16,08,-6.70
2021,12,27,16,09,-6.70
2021,12,27,16,10,-6.70
2021,12,27,16,11,-6.80
2021,12,27,16,12,-6.80
2021,12,27,16,13,-6.80
2021,12,27,16,14,-6.80
2021,12,27,16,15,-6.80
2021,12,27,16,16,-6.80
2021,12,27,16,17,-6.80
2021,12,27,16,18,-6.70
2021,12,27,16,19,-6.70
2021,12,27,16,20,-6.70
2021,12,27,16,21,-6.80
2021,12,27,16,22,-6.80
2021,12,27,16,23,-6.70
2021,12,27,16,24,-6.70
2021,12,27,16,25,-6.70
2021,12,27,16,26,-6.70
2021,12,27,16,27,-6.70
2021,12,27,16,28,-6.70
2021,12,27,16,29,-6.70
2021,12,27,16,30,-6.70
2021,12,27,16,31,-6.70
2021,12,27,16,32,-6.70
2021,12,27,16,33,-6.70
2021,12,27,16,34,-6.70
2021,12,27,16,35,-6.70
2021,12,27,16,36,-6.70
2021,12,27,16,37,-6.70
2021,12,27,16,38,-6.70
2021,12,27,16,39,-6.70
2021,12,27,16,40,-6.70
2021,12,27,16,41,-6.70
2021,12,27,16,42,-6.70
2021,12,27,16,43,-6.70
2021,12,27,16,44,-6.80
2021,12,27,16,45,-6.80
2021,12,27,16,46,-6.80
2021,12,27,16,47,-6.80
2021,12,27,16,48,-6.80
2021,12,27,16,49,-6.70
2021,12,27,16,50,-6.70
2021,12,27,16,51,-6.80
2021,12,27,16,52,-6.80
2021,12,27,16,53,-6.80
2021,12,27,16,54,-6.80
2021,12,27,16,55,-6.80
2021,12,27,16,56,-6.80
2021,12,27,16,57,-6.80
2021,12,27,16,58,-6.80
2021,12,27,16,59,-6.80
2021,12,27,17,00,-6.80
2021,12,27,17,01,-6.80
2021,12,27,17,02,-6.80
2021,12,27,17,03,-6.80
2021,12,27,17,04,-6.80
2021,12,27,17,05,-6.80
2021,12,27,17,06,-6.80
2021,12,27,17,07,-6.80
2021,12,27,17,08,-6.80
2021,12,27,17,09,-6.80
2021,12,27,17,10,-6.80
2021,12,27,17,11,-6.80
2021,12,27,17,12,-6.80
2021,12,27,17,13,-6.80
2021,12,27,17,14,-6.80
2021,12,27,17,15,-6.80
2021,12,27,17,16,-6.80
2021,12,27,17,17,-6.80
2021,12,27,17,18,-6.80
2021,12,27,17,19,-6.80